Regional Weather Roundup
Issued by NWS

Home | Current Version | Previous Version | Text Only | Print | Product List | Glossary Off
Versions: 1 2 3 4 5 6 7 8 9 10 11 12 13 14 15 16 17 18 19 20 21 22 23 24 25 26 27 28 29 30 31 32 33 34 35 36 37 38 39 40 41 42 43 44 45 46 47 48 49 50

000
ASUS43 KDMX 251607
RWRIA

WEATHER ROUNDUP FOR IOWA
NATIONAL WEATHER SERVICE DES MOINES IA
1100 AM CDT MON MAY 25 2015

NOTE: "FAIR" INDICATES FEW OR NO CLOUDS BELOW 12,000 FEET WITH NO
SIGNIFICANT WEATHER AND/OR OBSTRUCTIONS TO VISIBILITY.

* - THESE STATIONS ARE NOT NWS STATIONS...THUS NOT UNDER NWS
QUALITY CONTROL.  THEY ALSO DO NOT REPORT WEATHER SUCH
AS PRECIPITATION OR FOG.

IAZ001>003-012>014-020>022-031>034-043>046-251700-
   NORTHWEST IOWA

CITY           SKY/WX    TMP DP  RH WIND       PRES   REMARKS
CARROLL *      CLOUDY    68  63  83 SW17      29.81R
CHEROKEE *     CLOUDY    66  64  94 SW9       29.78S
DENISON *      MOSUNNY   66  66 100 SW8       29.79F
LE MARS *      CLOUDY    68  63  83 SW10      29.78F
ORANGE CITY *  CLOUDY    63  61  94 SW8       29.78S
SHELDON *      CLOUDY    64  64 100 SW10      29.77R
SIOUX CITY     CLOUDY    66  61  84 SW5       29.79R
SPENCER        CLOUDY    67  60  78 SW16      29.78R
STORM LAKE *   CLOUDY    66  64  94 SW13      29.80R
$$

IAZ055>058-069>071-079>083-090>094-251700-
   SOUTHWEST IOWA

CITY           SKY/WX    TMP DP  RH WIND       PRES   REMARKS
ATLANTIC *     SUNNY     70  61  73 SW13      29.82S
AUDUBON *      SUNNY     70  61  73 SW10G20   29.83R
CLARINDA *     SUNNY     72  61  68 S14       29.84S
COUNCIL BLFS * MOSUNNY   70  63  78 S15       29.82S
CRESTON *      SUNNY     70  63  78 S9G17     29.84S
HARLAN  *      MOSUNNY   68  66  94 SW12      29.84F
LAMONI         MOSUNNY   73  62  68 S12G20    29.84R
RED OAK *      MOSUNNY   70  61  73 SW13      29.83S
SHENANDOAH *   MOSUNNY   72  61  68 SW13      29.83S
$$

IAZ047>049-059>061-072>074-084-251700-
   CENTRAL IOWA

CITY           SKY/WX    TMP DP  RH WIND       PRES   REMARKS
AMES           MOSUNNY   71  62  73 SW15      29.80F
ANKENY *       MOSUNNY   72  63  73 SW12G20   29.82S
CHARITON *     SUNNY     72  63  73 S16G22    29.84F
DES MOINES     PTSUNNY   72  61  68 SW13      29.82S
GRINNELL*      PTSUNNY   70  61  73 SW18G26   29.85R
KNOXVILLE *    MOSUNNY   70  61  73 S14G22    29.81F
MARSHALLTOWN   PTSUNNY   71  64  78 SW20G26   29.82R
PELLA *        MOSUNNY   72  66  83 SW8G20    29.84F
PERRY *          N/A     70  63  78 SW20      29.81R
$$

IAZ004>006-015-016-023>025-035-036-251700-
   NORTH CENTRAL IOWA

CITY           SKY/WX    TMP DP  RH WIND       PRES   REMARKS
ALGONA *       CLOUDY    68  63  83 SW15      29.77F
CLARION *      CLOUDY    70 N/A N/A SW18      29.78F
ESTHERVILLE    CLOUDY    64  60  87 SW17      29.76S
FORT DODGE *   CLOUDY    70  63  78 SW14      29.79F
MASON CITY     PTSUNNY   69  62  78 SW16G24   29.78F
FOREST CITY *  CLOUDY    64  61  88 SW12G20   29.78R
IOWA FALLS *   CLOUDY    70  64  83 SW16      29.81S
$$

IAZ007>011-017>019-026>030-037>042-050>054-066-251700-
   NORTHEAST IOWA

CITY           SKY/WX    TMP DP  RH WIND       PRES   REMARKS
CEDAR RAPIDS   CLOUDY    67  65  93 SW15      29.85R
CHARLES CITY * CLOUDY    70  68  94 SW16G25   29.79S
CLINTON *      CLOUDY    70  63  78 W21G28    29.89R
DECORAH *      CLOUDY    68  64  88 SW13G20   29.77S
DUBUQUE        CLOUDY    67  64  90 SW18G24   29.83R
MONTICELLO *   CLOUDY    68  66  94 SW17G24   29.84S
OELWEIN *      CLOUDY    68  64  88 SW16G25   29.81S
WATERLOO       PTSUNNY   71  64  78 SW15G25   29.79F
$$

IAZ064-065-067-068-078-251700-
   EAST CENTRAL IOWA

CITY           SKY/WX    TMP DP  RH WIND       PRES   REMARKS
DAVENPORT      PTSUNNY   69  63  81 SW23G30   29.89R
IOWA CITY      MOSUNNY   70  64  81 SW12      29.87F
MT. PLEASANT * MOSUNNY   70  63  78 SW16      29.90F
MUSCATINE *    PTSUNNY   73  63  68 SW14G23   29.88S
QUAD CITIES    PTSUNNY   71  61  70 W15       29.88R
$$

IAZ062-063-075>077-085>089-095>099-251700-
   SOUTHEAST IOWA

CITY           SKY/WX    TMP DP  RH WIND       PRES   REMARKS
BURLINGTON     CLOUDY    71  65  81 SW20G25   29.92R
FAIRFIELD *    PTSUNNY   70  63  78 SW23      29.89F
FORT MADISON * PTSUNNY   70  63  78 SW14      29.94R
KEOKUK *       PTSUNNY   72  63  73 SW17G24   29.93S
OSKALOOSA *    PTSUNNY   70  63  78 SW23G29   29.87S
CENTERVILLE *  SUNNY     70  70 100 S13       29.88F
OTTUMWA        CLOUDY    70  62  76 SW21G28   29.87S
WASHINGTON *   PTSUNNY   72  64  78 SW15G26   29.89S
$$

ABBREVIATIONS USED IN REMARKS
   TC - TEMPERATURES IN CELSIUS
  WCI - WIND CHILL INDEX
   HX - HEAT INDEX
  VSB - VISIBILITY
$$




USA.gov is the U.S. government's official web portal to all federal, state and local government web resources and services.